Location: Lichtensteig
(47.3376°N, 9.0841°E)
Time: 10:14:49
(UTC+00:00)

SL-4 R/B - Pass Details

Date: 03 March 2021
Orbit: 428 x 663 km, 51.6° (Epoch: 10 April)

Event Time Altitude Azimuth Distance (km) Brightness Sun altitude
Rises 19:51:09 0° 294° (WNW) 2,447 6.6 -27.3°
Reaches altitude 10° 19:53:19 10° 292° (WNW) 1,552 5.3 -27.7°
Enters shadow 19:54:46 23° 287° (WNW) 975 4.0 -27.9°
